Change the Weather History Date:

Wednesday, June 26, 2013

  Actual Average (KJCT) Record (KJCT)
Temperature  
Mean Temperature 86 °F -  
Max Temperature 98 °F 89 °F 108 °F (2012)
Min Temperature 73 °F 68 °F 60 °F (2006)
Cooling Degree Days 20    
Growing Degree Days 36 (Base 50)    
Moisture  
Dew Point 67 °F    
Average Humidity 54    
Maximum Humidity 83    
Minimum Humidity 30    
Precipitation  
Precipitation 0.00 in - - ()
Sea Level Pressure  
Sea Level Pressure 29.94 in    
Wind  
Wind Speed 12 mph (SSE)    
Max Wind Speed 17 mph    
Max Gust Speed 26 mph    
Visibility 10 miles    
Events      
Averages and records for this station are not official NWS values.
T = Trace of Precipitation, MM = Missing Value Source: NWS Daily Summary

Daily Weather History Graph

Daily Weather History Graph

Search for Another Location

Airport or City:

Trip Planner

Search our weather history database for the weather conditions in past years. The results will help you decide how hot, cold, wet, or windy it might be!

Date:

Astronomy

Jun. 26, 2013 Rise Set
Actual Time 6:35 AM CDT 8:45 PM CDT
Civil Twilight 6:07 AM CDT 9:13 PM CDT
Nautical Twilight 5:33 AM CDT 9:47 PM CDT
Astronomical Twilight 4:56 AM CDT 10:23 PM CDT
Moon 11:26 PM CDT (6/26) 10:13 AM CDT (6/26)
Length of Visible Light 15h 05m
Length of Day
14h 09m
Waning Gibbous, 85% of the Moon is Illuminated
Jun 26
Waning Gibbous
Jun 29
Last Quarter
Jul 8
New
Jul 15
First Quarter
Jul 22
Full

Hourly Weather History & Observations

Time (CDT) Temp. Heat Index Dew Point Humidity Pressure Visibility Wind Dir Wind Speed Gust Speed Precip Events Conditions
12:15 AM 82.4 °F 84.6 °F 66.2 °F 58% 29.94 in 10.0 mi SSE 12.7 mph - N/A   Clear
12:35 AM 82.4 °F 84.6 °F 66.2 °F 58% 29.93 in 10.0 mi SSE 13.8 mph - N/A   Clear
12:55 AM 82.4 °F 85.4 °F 68.0 °F 62% 29.93 in 10.0 mi SSE 10.4 mph - N/A   Clear
1:15 AM 80.6 °F 83.2 °F 68.0 °F 65% 29.92 in 10.0 mi SSE 9.2 mph - N/A   Clear
1:35 AM 80.6 °F 83.2 °F 68.0 °F 65% 29.93 in 10.0 mi SSE 9.2 mph - N/A   Clear
1:55 AM 80.6 °F 83.2 °F 68.0 °F 65% 29.93 in 10.0 mi SSE 12.7 mph - N/A   Clear
2:15 AM 80.6 °F 83.2 °F 68.0 °F 65% 29.92 in 10.0 mi SSE 10.4 mph - N/A   Clear
2:35 AM 78.8 °F - 68.0 °F 69% 29.93 in 10.0 mi SSE 11.5 mph - N/A   Clear
2:55 AM 78.8 °F - 68.0 °F 69% 29.93 in 10.0 mi SSE 10.4 mph - N/A   Clear
3:15 AM 78.8 °F - 68.0 °F 69% 29.93 in 10.0 mi SSE 11.5 mph - N/A   Clear
3:35 AM 78.8 °F - 66.2 °F 65% 29.93 in 10.0 mi SSE 9.2 mph - N/A   Clear
3:55 AM 77.0 °F - 66.2 °F 69% 29.93 in 10.0 mi SSE 6.9 mph - N/A   Clear
4:15 AM 77.0 °F - 66.2 °F 69% 29.93 in 10.0 mi SSE 9.2 mph - N/A   Clear
4:35 AM 75.2 °F - 66.2 °F 73% 29.93 in 10.0 mi SSE 8.1 mph - N/A   Clear
4:55 AM 75.2 °F - 66.2 °F 73% 29.93 in 10.0 mi SSE 12.7 mph - N/A   Clear
5:15 AM 75.2 °F - 68.0 °F 78% 29.94 in 10.0 mi SSE 12.7 mph - N/A   Clear
5:35 AM 75.2 °F - 68.0 °F 78% 29.94 in 10.0 mi SSE 9.2 mph - N/A   Clear
5:55 AM 73.4 °F - 68.0 °F 83% 29.95 in 10.0 mi South 11.5 mph - N/A   Clear
6:15 AM 73.4 °F - 68.0 °F 83% 29.95 in 10.0 mi SSE 6.9 mph - N/A   Clear
6:35 AM 73.4 °F - 68.0 °F 83% 29.95 in 10.0 mi South 9.2 mph - N/A   Clear
6:55 AM 73.4 °F - 68.0 °F 83% 29.96 in 10.0 mi SSE 9.2 mph - N/A   Clear
7:15 AM 73.4 °F - 68.0 °F 83% 29.97 in 10.0 mi South 9.2 mph - N/A   Clear
7:35 AM 75.2 °F - 68.0 °F 78% 29.96 in 10.0 mi South 10.4 mph - N/A   Clear
7:55 AM 75.2 °F - 68.0 °F 78% 29.97 in 10.0 mi South 12.7 mph - N/A   Clear
8:15 AM 77.0 °F - 68.0 °F 74% 29.97 in 10.0 mi South 12.7 mph - N/A   Scattered Clouds
8:35 AM 78.8 °F - 69.8 °F 74% 29.97 in 10.0 mi South 16.1 mph - N/A   Mostly Cloudy
8:55 AM 78.8 °F - 69.8 °F 74% 29.98 in 10.0 mi South 15.0 mph - N/A   Mostly Cloudy
9:15 AM 80.6 °F 83.9 °F 69.8 °F 70% 29.98 in 10.0 mi South 16.1 mph - N/A   Overcast
9:55 AM 82.4 °F 86.3 °F 69.8 °F 66% 29.98 in 10.0 mi South 15.0 mph - N/A   Mostly Cloudy
10:15 AM 84.2 °F 88.4 °F 69.8 °F 62% 29.98 in 10.0 mi South 17.3 mph - N/A   Scattered Clouds
10:35 AM 84.2 °F 88.4 °F 69.8 °F 62% 29.98 in 10.0 mi South 17.3 mph - N/A   Scattered Clouds
10:55 AM 84.2 °F 88.4 °F 69.8 °F 62% 29.99 in 10.0 mi South 17.3 mph - N/A   Partly Cloudy
11:15 AM 84.2 °F 88.4 °F 69.8 °F 62% 29.99 in 10.0 mi South 13.8 mph - N/A   Clear
11:35 AM 87.8 °F 92.6 °F 69.8 °F 55% 29.99 in 10.0 mi South 13.8 mph - N/A   Clear
11:55 AM 87.8 °F 92.6 °F 69.8 °F 55% 29.98 in 10.0 mi South 16.1 mph - N/A   Clear
12:15 PM 87.8 °F 92.6 °F 69.8 °F 55% 29.98 in 10.0 mi SSE 12.7 mph - N/A   Clear
12:35 PM 89.6 °F 94.7 °F 69.8 °F 52% 29.98 in 10.0 mi SSE 12.7 mph - N/A   Clear
12:55 PM 91.4 °F 96.8 °F 69.8 °F 49% 29.97 in 10.0 mi South 16.1 mph 26.5 mph N/A   Clear
1:15 PM 93.2 °F 98.8 °F 69.8 °F 46% 29.97 in 10.0 mi South 12.7 mph - N/A   Clear
1:35 PM 93.2 °F 98.8 °F 69.8 °F 46% 29.97 in 10.0 mi South 15.0 mph - N/A   Clear
1:55 PM 93.2 °F 98.8 °F 69.8 °F 46% 29.96 in 10.0 mi SE 10.4 mph - N/A   Clear
2:15 PM 95.0 °F 101.3 °F 69.8 °F 44% 29.95 in 10.0 mi SSE 10.4 mph - N/A   Clear
2:35 PM 95.0 °F 98.5 °F 66.2 °F 39% 29.95 in 10.0 mi SSE 15.0 mph - N/A   Clear
2:55 PM 96.8 °F 101.8 °F 68.0 °F 39% 29.94 in 10.0 mi South 10.4 mph - N/A   Clear
3:15 PM 98.6 °F 104.1 °F 68.0 °F 37% 29.94 in 10.0 mi South 16.1 mph - N/A   Clear
3:35 PM 98.6 °F 102.8 °F 66.2 °F 35% 29.93 in - SSE 13.8 mph - N/A   Unknown
3:55 PM 98.6 °F 102.8 °F 66.2 °F 35% 29.93 in 10.0 mi SSE 11.5 mph - N/A   Clear
4:15 PM 98.6 °F 102.8 °F 66.2 °F 35% 29.92 in 10.0 mi SSE 10.4 mph - N/A   Clear
4:35 PM 98.6 °F 102.8 °F 66.2 °F 35% 29.92 in 8.0 mi SSE 13.8 mph - N/A   Clear
4:55 PM 98.6 °F 102.8 °F 66.2 °F 35% 29.92 in 10.0 mi SE 17.3 mph - N/A   Clear
5:15 PM 98.6 °F 101.0 °F 64.4 °F 32% 29.91 in 10.0 mi South 10.4 mph - N/A   Clear
5:35 PM 98.6 °F 101.0 °F 64.4 °F 32% 29.91 in 10.0 mi SE 11.5 mph - N/A   Clear
5:55 PM 98.6 °F 101.0 °F 64.4 °F 32% 29.90 in 10.0 mi SSE 12.7 mph - N/A   Clear
6:15 PM 98.6 °F 100.0 °F 62.6 °F 30% 29.91 in 8.0 mi SE 11.5 mph - N/A   Clear
6:35 PM 98.6 °F 100.0 °F 62.6 °F 30% 29.90 in 10.0 mi SSE 11.5 mph - N/A   Clear
6:55 PM 98.6 °F 100.0 °F 62.6 °F 30% 29.90 in 10.0 mi SSE 10.4 mph - N/A   Clear
7:15 PM 98.6 °F 100.0 °F 62.6 °F 30% 29.90 in 10.0 mi SE 11.5 mph - N/A   Clear
7:35 PM 96.8 °F 98.0 °F 62.6 °F 32% 29.91 in 10.0 mi SSE 12.7 mph - N/A   Clear
7:55 PM 96.8 °F 97.1 °F 60.8 °F 30% 29.91 in 10.0 mi SSE 12.7 mph - N/A   Clear
8:15 PM 95.0 °F 95.2 °F 60.8 °F 32% 29.91 in 10.0 mi SSE 10.4 mph - N/A   Clear
8:35 PM 93.2 °F 93.3 °F 60.8 °F 34% 29.92 in 10.0 mi SSE 10.4 mph - N/A   Clear
8:55 PM 93.2 °F 93.3 °F 60.8 °F 34% 29.93 in 10.0 mi SSE 8.1 mph - N/A   Clear
9:15 PM 91.4 °F 91.4 °F 60.8 °F 36% 29.93 in 10.0 mi SSE 9.2 mph - N/A   Clear
9:35 PM 91.4 °F 92.1 °F 62.6 °F 38% 29.94 in 10.0 mi SSE 8.1 mph - N/A   Clear
9:55 PM 89.6 °F 90.1 °F 62.6 °F 40% 29.95 in 10.0 mi SSE 6.9 mph - N/A   Clear
10:15 PM 89.6 °F 90.1 °F 62.6 °F 40% 29.96 in 10.0 mi SSE 6.9 mph - N/A   Clear
10:35 PM 89.6 °F 91.1 °F 64.4 °F 43% 29.96 in 10.0 mi SSE 6.9 mph - N/A   Clear
10:55 PM 87.8 °F 89.4 °F 64.4 °F 46% 29.96 in 10.0 mi SSE 6.9 mph - N/A   Clear
11:15 PM 86.0 °F 87.3 °F 64.4 °F 48% 29.97 in 10.0 mi SE 8.1 mph - N/A   Clear
11:35 PM 84.2 °F 85.6 °F 64.4 °F 51% 29.98 in 10.0 mi SE 6.9 mph - N/A   Clear
11:55 PM 84.2 °F 85.6 °F 64.4 °F 51% 29.97 in 10.0 mi SE 5.8 mph - N/A   Clear